THOR ABLESTAR DEB, 15558

Orbit data source: Space-Track

THOR ABLESTAR DEB, 15558 is space debris in LEO originally from a launch on Thu, 29 Jun 1961 UTC launched from the Air Force Eastern Test Range (AFETR). Debris objects in space refer to the collection of defunct objects orbiting the Earth. Examples of debris include non-operational satellites, rocket bodies, and fragments generated from explosions, collisions, or faulty payload assembly.

Loading next visibility...
Identifier
15558, 1961-015LE
Orbit
LEO
Country
Flag of USUS
Related business
Manufacturer
Unknown
Mission
Spacecraft
Bus & Motor
Unknown
Mass
Unknown
Launch date (UTC)
1961-06-29 (65 years ago)
Launch vehicle
Unknown
Launch site
Air Force Eastern Test Range (AFETR)
Object type
Payload
Rocket body
Debris
Shape & HBR
Unknown shape, 0.1 m
Radar Cross Section
Small (<0.1 m²)

Expand to show TLE details & history
Last TLE update: 3 days ago

TLE from 3 days ago
0 THOR ABLESTAR DEB
1 15558U 61015LE  26170.43002752  .00000086  00000-0  10794-3 0  9994
2 15558  65.5857 181.1517 0041575  76.8479 283.7231 14.04924156124592
Epoch: 2026-06-19T10:19Z
TLE epoch observation values (Epoch: 2026-06-19T10:19:14.377Z)
Latitude
-0.00004°
Longitude
118.68266°
Altitude
871.751 km
Speed
7.421 km/s
True Right ascension
12h 04m 36s
True Declination
0° 00' 00"
Sunlit
Object was in daylight at epoch
Visualization orbit readout
Latitude
Unknown
Longitude
Unknown
Altitude
Unknown
Speed
Unknown
Apparent Right ascension
Unknown
Apparent Declination
Unknown
Sunlit
N/A
Visualization observer readout
Local Sidereal Time
08:40:01
Azimuth
Unknown
Elevation
Unknown
Doppler factor
Unknown
Orbital elements
Apogee altitude
905.475 km
Perigee altitude
845.162 km
Semi-major axis
7,253.456 km
Eccentricity
0.00416
Inclination
65.5857°
RAAN
181.1517°
Arg. of periapsis
76.8479°
True anomaly
283.25972°
Mean anomaly
283.7231°
Eccentric anomaly
283.49147°
Mean motion
3.51339 °/min
Orbital period
102.47 mins
BSTAR
0.00010794
Loading maneuver chart data...
Computing Atmospheric mass density...

Documentation

Showing up to 5 results
|